Location: Unspecified
(0.0000°N, 0.0000°E)
Time: 13:45:44
(UTC+02:00)

SWIFT - Visible Passes

Search period start: 18 May 2026 00:00
Search period end: 28 May 2026 00:00
Orbit: 370 x 374 km, 20.6° (Epoch: 18 May)

Date Brightness Start Highest point End Pass type
(mag) Time Alt. Az. Time Alt. Az. Time Alt. Az.
22 May 4.1 21:31:23 10° NNW 21:32:34 14° N 21:32:34 14° N visible
23 May 5.0 22:02:19 10° NW 22:02:34 12° NW 22:02:34 12° NW visible
24 May 3.1 20:56:52 10° NW 20:59:27 24° NNE 21:00:38 19° NE visible
25 May 2.4 21:28:11 10° WNW 21:30:32 48° WNW 21:30:32 48° WNW visible
26 May 4.0 07:19:10 10° S 07:20:36 12° SSE 07:22:02 10° SE visible
26 May 2.2 20:22:23 10° NW 20:25:20 43° NNE 20:28:19 10° E visible
26 May 4.9 22:00:17 10° W 22:00:23 11° W 22:00:23 11° W visible
27 May 2.0 20:54:00 10° W 20:57:00 49° SSW 20:58:19 28° SE visible
